Vertical_Velocity
-1 -1 -1 -1 -2 -1 -0 0 -0 2 1 -1 -0 -1 -0 -0 -2 -1 -0 -5 -2 0 -0 -2 -1 -5 -4 -3 2 -8 16 1 2 5 -5 -1 -1 2 -1 -5 1 -1 3 -1 -1
0 -1 -1 -1 -2 -1 -0 1 0 1 1 -1 -0 0 -1 0 0 1 -1 -2 1 1 2 -4 -2 -4 -3 2 -1 -4 10 2 -3 -0 -0 -0 -2 -4 -2 1 3 0 -2 -4 -1
-1 -1 -1 -1 -2 -1 -0 -0 -0 -0 0 -0 -0 -1 -1 1 4 -3 -2 -1 1 -1 -1 -4 1 -4 2 1 -0 -0 -0 4 -1 0 -2 2 -3 -1 1 2 -2 -7 -6 -2 -1
-1 -0 -1 -1 -1 -1 -0 0 -0 0 1 0 -0 -0 -1 2 9 -3 -1 -1 1 1 -3 -3 2 1 2 8 1 12 -2 -3 -2 -3 -3 2 -1 -4 1 -0 5 -6 -6 -3 -1
-1 -1 -2 -1 -1 -2 -1 -0 -1 -0 1 0 -0 -0 -0 4 -5 -1 -1 -2 1 -1 -2 -2 -3 -7 7 -1 -1 8 0 -1 -4 -4 -2 -1 -0 1 -3 -3 -1 -3 -1 -1 -0
0 -0 -1 -1 -1 -2 -0 -1 -2 -1 1 0 0 -1 -0 3 0 -0 -1 -1 3 -1 3 -2 -7 -0 -0 -3 5 -4 -1 0 -2 -2 -1 1 -1 1 -0 -0 -3 0 -0 1 1
0 0 -1 -1 -2 -2 -1 -2 -1 -1 1 0 1 0 2 -1 -1 -0 0 -1 3 1 7 -6 -6 -2 1 -0 -3 -5 1 -3 -2 -0 0 1 -5 -1 -1 -0 -2 -2 0 1 -4
0 0 -1 -2 -2 -1 -1 0 -1 -1 1 1 1 -1 2 -0 0 0 -1 1 2 0 -2 -4 -4 -3 1 -7 -4 4 -6 11 -6 -1 -1 2 11 1 1 3 3 1 -1 2 2
1 -0 -0 -0 -0 -0 -0 0 -1 -0 0 1 1 1 3 -2 -2 -3 1 4 3 -1 0 -6 -3 1 -3 0 -1 -18 23 -2 -6 -0 -0 1 5 -1 2 -1 2 3 3 0 -0
-1 -2 -2 -2 -1 -0 -0 0 1 1 -1 2 2 1 2 -1 -3 -3 -0 1 2 -1 1 -2 4 1 -1 12 15 17 1 1 1 -3 -0 7 -1 7 4 4 4 3 2 3 2
-1 -2 -1 -2 -1 0 1 1 2 2 1 -4 -3 -5 4 0 -1 -1 2 2 0 4 5 -3 -1 12 8 -2 -7 -10 -3 -2 0 -4 -1 -2 -3 7 -0 1 -1 4 6 3 4
-1 -3 -1 -1 -0 0 1 1 -1 -1 1 1 0 0 -1 0 -1 -2 0 -2 -3 -6 22 -8 29 -17 -5 -6 5 -6 0 -1 2 -5 -3 -0 -2 1 3 2 -1 -0 2 3 1
-1 -1 -1 -0 -0 1 0 -0 -1 -0 -0 0 0 -1 -0 1 6 -2 -2 -0 -5 16 -9 -2 23 -10 3 -4 0 -7 13 -8 -1 -5 -7 -10 12 -4 -3 2 4 1 -1 0 1
0 -0 -1 -0 -1 -0 -0 -0 -1 -0 -1 -3 2 -1 -0 -2 -1 1 0 -2 5 -9 -1 3 -7 -5 -2 1 -12 33 -12 -4 -1 -3 20 -13 -4 11 1 -2 0 -1 -1 1 -0
-2 0 -1 -1 -1 -0 0 -1 -1 0 10 -3 1 -1 -2 -3 2 -3 -3 0 9 10 -3 -2 -9 -6 -4 28 -16 21 -9 -4 -5 8 -15 14 1 28 -5 8 2 -3 -5 -3 -0
-1 -1 -0 -1 -1 -0 -0 -1 -1 0 10 1 -1 -1 -1 -2 -1 -0 -4 -3 16 15 -5 41 -7 -1 17 -3 -7 -4 -8 -3 -13 -4 13 -3 -5 16 -7 0 2 -0 -3 -4 -0
-2 -1 1 -1 -1 0 0 0 3 7 -7 -1 4 -3 3 -2 2 1 -3 -1 -9 4 2 8 -5 7 -6 4 -14 -6 -1 -6 7 11 4 -4 -3 6 -5 3 1 1 -2 -4 -0
-2 -1 1 1 -0 1 1 1 6 -3 9 -7 -2 0 -1 -2 9 3 3 3 4 9 18 -3 22 -15 -10 -10 6 19 8 12 2 2 3 -1 -1 8 1 -6 -2 -2 -3 -4 -5
-3 -1 1 0 0 0 1 1 8 2 -2 1 -2 2 4 0 6 2 -1 4 -5 -15 2 2 -12 18 5 5 1 -2 -10 14 -1 1 6 2 -7 -7 2 -4 -1 -2 -4 -1 -4
-1 -1 1 0 0 2 -0 9 -2 -1 -1 -1 10 2 -2 -1 0 2 -5 -7 6 -6 -0 -6 9 -14 19 -6 5 -11 23 8 -2 1 -1 4 -2 -9 -1 32 -5 -3 -6 -2 -0
-1 1 1 1 2 3 -3 9 -0 1 -2 -2 -2 1 9 -5 -2 -8 -5 0 -0 -7 -0 13 -2 6 -4 -8 8 -6 -4 -15 7 -1 8 0 2 0 -6 13 1 3 -1 -3 1
0 6 -0 2 3 -0 3 -4 -4 0 -0 -2 -2 -2 3 -0 -3 6 5 16 -7 8 -11 -14 12 -1 -13 8 -14 1 16 3 11 -7 -11 -4 -35 9 -2 2 7 -2 -3 4 -2
-0 -0 0 1 6 -2 -2 -0 -1 1 1 0 1 2 -5 -0 1 3 1 -8 -5 0 4 -1 -14 6 2 4 -13 -12 -9 -15 -7 16 -8 11 -14 -16 -3 2 4 2 -2 0 -1
1 5 0 -0 -7 6 -1 1 -0 -3 -2 -2 2 -1 -2 -1 -3 -5 4 -1 -2 -2 -7 -3 4 -6 2 -10 4 9 -2 7 4 13 -14 -13 -8 -9 10 6 -6 8 -3 -2 -2
2 0 -5 -4 -3 0 -6 -4 1 -1 -0 -1 1 -1 -0 -0 0 1 8 -0 -0 -1 -2 -3 -2 6 -4 6 3 3 3 0 -5 -7 20 -1 15 -7 21 2 6 6 3 -3 -1
-1 1 3 -3 -4 -2 -2 -3 2 -5 2 -0 -2 -0 -1 7 19 -5 -0 6 2 -0 -1 -3 0 -6 -8 4 2 -1 -5 8 -7 -1 8 -9 -13 17 -18 -2 0 10 4 3 -2
1 1 2 -3 -0 -2 8 6 8 1 -0 -2 -0 -0 5 -6 -3 -6 -6 -5 -6 4 3 2 6 -1 -6 -4 5 1 -17 -5 4 -2 -3 3 4 -2 0 -7 5 8 8 4 5
Height
3159 3160 3161 3162 3163 3164 3164 3164 3164 3165 3165 3164 3163 3165 3168 3172 3175 3178 3181 3183 3185 3187 3189 3190 3189 3189 3189 3188 3187 3188 3188 3188 3188 3187 3187 3184 3184 3183 3181 3180 3179 3178 3182 3181 3182
3157 3158 3159 3160 3161 3162 3162 3163 3163 3164 3164 3163 3162 3163 3167 3171 3174 3178 3181 3182 3185 3187 3190 3191 3190 3190 3190 3189 3190 3191 3190 3191 3190 3190 3188 3187 3187 3184 3184 3182 3180 3180 3180 3181 3184
3154 3155 3157 3158 3159 3160 3161 3161 3162 3163 3163 3162 3162 3162 3166 3170 3174 3176 3179 3182 3185 3187 3190 3192 3192 3192 3192 3191 3192 3192 3193 3193 3192 3191 3189 3188 3188 3187 3187 3187 3183 3182 3182 3183 3185
3152 3153 3155 3156 3157 3158 3159 3160 3161 3162 3162 3162 3162 3162 3165 3169 3177 3176 3179 3182 3185 3188 3191 3193 3193 3194 3194 3195 3193 3195 3193 3193 3192 3191 3191 3191 3189 3189 3189 3188 3185 3183 3184 3185 3187
3151 3151 3153 3154 3155 3156 3157 3158 3160 3161 3162 3161 3162 3162 3165 3169 3171 3174 3178 3183 3185 3188 3191 3193 3195 3193 3195 3194 3195 3196 3194 3194 3193 3192 3192 3191 3191 3191 3190 3188 3186 3185 3186 3187 3189
3149 3149 3150 3152 3153 3154 3155 3157 3158 3160 3161 3161 3161 3163 3165 3171 3170 3174 3178 3182 3185 3188 3191 3193 3194 3194 3195 3195 3196 3195 3195 3194 3194 3193 3192 3193 3192 3191 3191 3190 3188 3187 3187 3188 3190
3147 3148 3149 3150 3150 3152 3153 3155 3156 3158 3160 3160 3161 3163 3166 3169 3170 3174 3178 3181 3184 3188 3191 3193 3194 3194 3195 3195 3196 3196 3196 3194 3194 3193 3193 3193 3192 3191 3190 3189 3189 3188 3188 3189 3190
3146 3146 3147 3148 3148 3150 3151 3153 3155 3157 3158 3159 3161 3163 3166 3167 3169 3173 3177 3181 3184 3187 3191 3192 3193 3194 3196 3195 3196 3197 3196 3195 3194 3193 3191 3192 3193 3191 3190 3189 3189 3189 3189 3189 3190
3144 3144 3145 3146 3147 3148 3149 3151 3153 3155 3157 3159 3161 3164 3167 3166 3168 3171 3176 3180 3183 3188 3191 3192 3193 3195 3195 3196 3196 3196 3193 3195 3195 3193 3192 3191 3192 3189 3188 3188 3188 3188 3189 3189 3190
3142 3142 3143 3144 3145 3146 3148 3149 3151 3154 3156 3158 3161 3166 3165 3166 3166 3168 3174 3178 3183 3187 3191 3193 3195 3196 3196 3192 3192 3193 3194 3195 3195 3194 3190 3191 3189 3189 3185 3186 3187 3187 3188 3189 3190
3140 3141 3142 3142 3143 3145 3147 3148 3153 3155 3155 3156 3158 3159 3161 3164 3166 3168 3173 3178 3183 3188 3191 3193 3194 3191 3193 3194 3194 3196 3196 3195 3195 3193 3191 3190 3188 3188 3185 3183 3185 3186 3187 3188 3189
3138 3139 3140 3140 3141 3143 3144 3146 3149 3151 3153 3154 3156 3158 3160 3162 3165 3168 3172 3180 3183 3187 3190 3194 3190 3193 3194 3196 3196 3196 3194 3194 3194 3192 3190 3190 3186 3186 3184 3183 3182 3184 3185 3186 3186
3135 3137 3138 3138 3139 3141 3143 3145 3146 3148 3151 3153 3155 3156 3159 3163 3167 3168 3172 3178 3182 3186 3188 3189 3189 3193 3194 3196 3196 3195 3194 3196 3195 3192 3189 3188 3183 3184 3183 3182 3180 3181 3183 3184 3184
3132 3134 3135 3136 3140 3139 3141 3143 3145 3147 3151 3153 3153 3155 3158 3162 3166 3168 3172 3179 3182 3184 3188 3189 3188 3193 3194 3195 3195 3192 3195 3195 3194 3191 3187 3189 3183 3182 3183 3180 3179 3180 3181 3181 3181
3129 3131 3133 3134 3135 3137 3140 3141 3144 3146 3146 3151 3150 3151 3155 3162 3164 3164 3169 3175 3180 3183 3187 3187 3189 3192 3193 3192 3194 3193 3194 3194 3192 3189 3188 3187 3185 3180 3181 3183 3181 3179 3180 3180 3180
3126 3127 3129 3131 3132 3135 3137 3140 3143 3148 3143 3146 3146 3149 3154 3158 3162 3163 3167 3173 3178 3182 3184 3186 3187 3190 3191 3190 3193 3192 3193 3192 3190 3186 3180 3185 3187 3179 3181 3181 3180 3178 3178 3178 3178
3123 3124 3126 3128 3131 3132 3135 3139 3146 3142 3143 3145 3147 3148 3154 3158 3161 3162 3166 3170 3173 3178 3180 3183 3184 3187 3189 3190 3191 3192 3191 3184 3179 3177 3176 3182 3184 3181 3182 3180 3179 3178 3177 3177 3177
3119 3120 3122 3124 3127 3130 3133 3139 3141 3139 3141 3141 3144 3148 3153 3156 3160 3162 3165 3168 3171 3174 3175 3177 3179 3182 3185 3187 3187 3187 3188 3183 3180 3176 3175 3179 3180 3178 3181 3178 3177 3176 3176 3176 3176
3115 3117 3119 3121 3124 3127 3132 3137 3135 3138 3138 3141 3144 3148 3151 3154 3158 3160 3163 3165 3168 3171 3173 3173 3175 3177 3180 3183 3186 3185 3187 3185 3183 3178 3180 3175 3179 3179 3178 3177 3176 3175 3175 3174 3174
3112 3114 3115 3118 3121 3125 3130 3133 3133 3132 3134 3138 3143 3145 3148 3151 3155 3157 3160 3163 3165 3168 3170 3173 3174 3175 3177 3178 3180 3181 3183 3183 3181 3179 3177 3172 3176 3177 3177 3176 3174 3173 3173 3173 3173
3110 3111 3112 3115 3119 3123 3127 3130 3130 3131 3133 3138 3141 3143 3145 3148 3152 3154 3158 3160 3163 3165 3168 3171 3173 3174 3175 3175 3175 3179 3179 3181 3178 3177 3175 3173 3171 3174 3175 3175 3173 3173 3171 3171 3172
3107 3111 3110 3112 3118 3120 3124 3124 3126 3130 3132 3134 3136 3140 3144 3147 3150 3153 3155 3158 3159 3162 3164 3168 3170 3169 3171 3171 3172 3173 3174 3176 3175 3175 3176 3177 3175 3172 3172 3172 3171 3172 3171 3170 3170
3105 3106 3108 3110 3117 3117 3118 3121 3124 3128 3131 3133 3136 3138 3140 3145 3149 3151 3153 3154 3157 3159 3163 3166 3167 3166 3167 3170 3171 3171 3171 3172 3172 3171 3172 3173 3171 3169 3169 3168 3168 3168 3168 3168 3168
3103 3107 3106 3108 3110 3116 3118 3120 3123 3123 3127 3130 3133 3136 3139 3143 3145 3149 3151 3153 3155 3157 3159 3162 3162 3162 3159 3161 3162 3164 3166 3168 3169 3168 3169 3170 3169 3168 3168 3167 3165 3165 3164 3165 3166
3099 3102 3102 3107 3110 3113 3114 3117 3120 3123 3125 3128 3132 3135 3139 3142 3144 3147 3150 3151 3154 3155 3157 3160 3160 3159 3159 3159 3160 3161 3162 3164 3166 3165 3164 3164 3165 3166 3166 3164 3162 3161 3160 3161 3163
3096 3099 3101 3103 3106 3110 3112 3115 3119 3120 3123 3127 3130 3134 3136 3141 3143 3145 3148 3150 3153 3154 3155 3156 3158 3157 3156 3156 3157 3158 3159 3160 3162 3163 3163 3164 3164 3163 3162 3161 3159 3158 3157 3156 3159
3092 3095 3099 3101 3105 3110 3112 3114 3116 3117 3120 3122 3126 3131 3135 3136 3139 3142 3144 3146 3149 3153 3154 3155 3155 3155 3152 3152 3154 3155 3154 3155 3156 3158 3160 3159 3159 3158 3158 3156 3155 3153 3153 3152 3154